sat.trackr.live / text

‹ back to catalog

STARLINK-31853

NORAD 59933 · 2024-106M

PAYLOAD ACTIVE UNKNOWN

§ Identity

Operator
Country
US
Launch date
2024-06-01
Launch site
AFETR
Launch vehicle
Mass (kg)
RCS (m²)

Purposes: comms

External: N2YO · Heavens-Above · Gunter

§ Orbital elements

Epoch: 2026-05-24T16:12:34.181568Z

Period
94.27 min
Inclination
43.0002°
Eccentricity
0.0001265
Mean motion
15.27576560 rev/d
Perigee alt
482.2 km
Apogee alt
483.9 km
Semi-major
6,861.2 km
B*
2.1744e-5
RAAN
263.4125°
Arg perigee
266.5813°
Mean anomaly
93.4894°
Rev number
11,214

§ Raw data

STARLINK-318531 59933U 24106M   26144.67539562  .00000336  00000+0  21744-4 0  99952 59933  43.0002 263.4125 0001265 266.5813  93.4894 15.27576560112148

JSON: /api/v1/satellites/59933 · /tle

For live sub-satellite position, see the globe view (requires WebGL).

§ Visibility from observer

Set your observer location to see the next 7 days of passes ≥ 10°. The values pass through the URL so the page stays shareable.

No JS? Fill the form by hand. The geolocation button needs JavaScript.